Marathon, FL

1:15 AM EDT on July 28, 2017 (GMT -0400)
Florida Keys Marathon

Weather History for KMTH - May, 2012

Change the Weather History Date:

Saturday, May 26, 2012

  Actual Average Record
Temperature  
Mean Temperature 81 °F 83 °F  
Max Temperature 89 °F 88 °F 93 °F (2017)
Min Temperature 73 °F 78 °F 72 °F (2004)
Degree Days  
Heating Degree Days 0 0  
Month to date heating degree days 0 0  
Since 1 July heating degree days 33 81  
Cooling Degree Days 16 18  
Month to date cooling degree days 438 413  
Year to date cooling degree days 1748 1449  
Growing Degree Days 32 (Base 50)    
Moisture  
Dew Point 73 °F    
Average Humidity 67    
Maximum Humidity 79    
Minimum Humidity 55    
Precipitation  
Precipitation 0.14 in 0.11 in 0.27 in (2007)
Month to date precipitation 3.89 2.67  
Year to date precipitation 18.17 11.26  
Snow  
Snow 0.00 in - - ()
Month to date snowfall 0.0  
Since 1 July snowfall 0.0  
Snow Depth 0.00 in    
Sea Level Pressure  
Sea Level Pressure 29.99 in    
Wind  
Wind Speed 6 mph (East)    
Max Wind Speed 22 mph    
Max Gust Speed 30 mph    
Visibility 10 miles    
Events Rain , Thunderstorm    
T = Trace of Precipitation, MM = Missing Value Source: NWS Daily Summary

Daily Weather History Graph

Daily Weather History Graph

Search for Another Location

Airport or City:

Trip Planner

Search our weather history database for the weather conditions in past years. The results will help you decide how hot, cold, wet, or windy it might be!

Date:

Astronomy

May. 26, 2012 Rise Set
Actual Time 6:36 AM EDT 8:06 PM EDT
Civil Twilight 6:10 AM EDT 8:31 PM EDT
Nautical Twilight 5:40 AM EDT 9:02 PM EDT
Astronomical Twilight 5:09 AM EDT 9:33 PM EDT
Moon 11:21 AM EDT (5/26) No Moon Set
Length of Visible Light 14h 21m
Length of Day
13h 30m
Waxing Crescent, 28% of the Moon is Illuminated
May 26
Waxing Crescent
May 28
First Quarter
Jun 4
Full
Jun 11
Last Quarter
Jun 19
New

Hourly Weather History & Observations

Time (EDT) Temp. Heat Index Dew Point Humidity Pressure Visibility Wind Dir Wind Speed Gust Speed Precip Events Conditions
12:53 AM 82.0 °F 87.9 °F 73.9 °F 76% 30.00 in 10.0 mi ESE 6.9 mph - N/A   Mostly Cloudy
1:53 AM 81.0 °F 86.2 °F 73.9 °F 79% 29.99 in 10.0 mi East 4.6 mph - N/A   Scattered Clouds
2:53 AM 81.0 °F 86.2 °F 73.9 °F 79% 29.99 in 10.0 mi East 4.6 mph - N/A   Scattered Clouds
3:53 AM 81.0 °F 86.2 °F 73.9 °F 79% 29.98 in 10.0 mi East 6.9 mph - N/A   Scattered Clouds
4:49 AM 80.6 °F 85.4 °F 73.4 °F 79% 29.98 in 10.0 mi Calm Calm - N/A   Mostly Cloudy
4:53 AM 81.0 °F 86.2 °F 73.9 °F 79% 29.99 in 10.0 mi ESE 4.6 mph - N/A   Mostly Cloudy
5:24 AM 80.6 °F 85.4 °F 73.4 °F 79% 29.98 in 10.0 mi SE 4.6 mph - N/A   Mostly Cloudy
5:53 AM 81.0 °F 85.8 °F 73.0 °F 77% 29.99 in 10.0 mi East 3.5 mph - N/A   Mostly Cloudy
6:53 AM 81.0 °F 85.8 °F 73.0 °F 77% 29.99 in 10.0 mi Calm Calm - N/A   Clear
7:53 AM 82.0 °F 87.9 °F 73.9 °F 76% 30.00 in 10.0 mi Calm Calm - N/A   Scattered Clouds
8:01 AM 82.4 °F 88.2 °F 73.4 °F 74% 30.00 in 10.0 mi ENE 5.8 mph - N/A   Mostly Cloudy
8:13 AM 82.4 °F 88.2 °F 73.4 °F 74% 30.01 in 10.0 mi ENE 4.6 mph - N/A   Scattered Clouds
8:43 AM 82.4 °F 88.2 °F 73.4 °F 74% 30.01 in 10.0 mi NE 4.6 mph - 0.00 in Rain Light Rain
8:53 AM 81.0 °F 86.2 °F 73.9 °F 79% 30.01 in 4.0 mi NE 3.5 mph - 0.04 in Rain Rain
9:53 AM 84.0 °F 91.2 °F 73.9 °F 72% 30.02 in 10.0 mi ENE 10.4 mph - 0.01 in   Overcast
10:08 AM 84.2 °F 90.9 °F 73.4 °F 70% 30.02 in 10.0 mi East 5.8 mph - N/A   Scattered Clouds
10:53 AM 86.0 °F 93.0 °F 73.0 °F 65% 30.02 in 10.0 mi NE 8.1 mph - N/A   Clear
11:53 AM 87.1 °F 94.5 °F 73.0 °F 63% 30.01 in 10.0 mi East 8.1 mph - N/A   Partly Cloudy
12:53 PM 88.0 °F 92.9 °F 70.0 °F 55% 30.01 in 10.0 mi East 9.2 mph - N/A   Clear
1:53 PM 88.0 °F 95.6 °F 73.0 °F 61% 30.00 in 10.0 mi East 10.4 mph - N/A   Clear
2:53 PM 87.1 °F 95.4 °F 73.9 °F 65% 29.98 in 10.0 mi East 10.4 mph - N/A   Clear
3:53 PM 88.0 °F 96.5 °F 73.9 °F 63% 29.97 in 10.0 mi Variable 5.8 mph - N/A   Clear
4:53 PM 87.1 °F 95.4 °F 73.9 °F 65% 29.96 in 10.0 mi SE 6.9 mph - N/A   Clear
5:53 PM 86.0 °F 93.8 °F 73.9 °F 67% 29.96 in 10.0 mi East 4.6 mph - N/A   Partly Cloudy
6:53 PM 84.0 °F 90.2 °F 73.0 °F 69% 29.96 in 10.0 mi Variable 5.8 mph - N/A   Clear
7:53 PM 82.9 °F 88.8 °F 73.0 °F 72% 29.96 in 10.0 mi Variable 5.8 mph - N/A   Partly Cloudy
8:53 PM 82.0 °F 87.4 °F 73.0 °F 74% 29.98 in 10.0 mi SE 6.9 mph - N/A   Clear
9:29 PM 82.4 °F 88.2 °F 73.4 °F 74% 29.99 in 10.0 mi ESE 4.6 mph - N/A   Mostly Cloudy
9:53 PM 82.0 °F 87.4 °F 73.0 °F 74% 29.99 in 10.0 mi SE 6.9 mph - N/A   Scattered Clouds
10:46 PM 82.4 °F 88.2 °F 73.4 °F 74% 30.00 in 10.0 mi Variable 4.6 mph - N/A Thunderstorm Thunderstorm
10:53 PM 82.0 °F 87.4 °F 73.0 °F 74% 30.00 in 10.0 mi Variable 4.6 mph - N/A Thunderstorm Thunderstorm
11:18 PM 77.0 °F - 68.0 °F 74% 30.02 in 10.0 mi NNE 16.1 mph 25.3 mph N/A Thunderstorm Mostly Cloudy
11:25 PM 75.2 °F - 68.0 °F 78% 30.01 in 10.0 mi NNE 17.3 mph 28.8 mph 0.00 in Rain , Thunderstorm Light Thunderstorms and Rain
11:53 PM 75.0 °F - 68.0 °F 79% 30.00 in 5.0 mi NE 12.7 mph - 0.03 in Rain , Thunderstorm Thunderstorms and Rain